Time,TemperatureF,DewpointF,PressureIn,WindDirection,WindDirectionDegrees,WindSpeedMPH,WindSpeedGustMPH,Humidity,HourlyPrecipIn,Conditions,Clouds,dailyrainin,SoftwareType,DateUTC
2013-02-02 00:05:00,28.4,17.1,30.32,ENE,67,0.0,0.0,62,0.00,,,0.00,WUHU21623XXSP,2013-02-02 08:05:00,
2013-02-02 00:13:00,28.2,16.9,30.32,East,90,0.0,0.0,62,0.00,,,0.00,WUHU21623XXSP,2013-02-02 08:13:00,
2013-02-02 00:20:00,28.0,16.7,30.32,ESE,112,0.0,0.0,62,0.00,,,0.00,WUHU21623XXSP,2013-02-02 08:20:00,
2013-02-02 00:25:00,28.0,16.7,30.32,NE,45,0.0,0.0,62,0.00,,,0.00,WUHU21623XXSP,2013-02-02 08:25:00,
2013-02-02 00:30:00,28.0,16.7,30.32,NE,45,0.0,0.0,62,0.00,,,0.00,WUHU21623XXSP,2013-02-02 08:30:00,
2013-02-02 00:39:00,27.7,16.3,30.32,NE,45,0.0,0.0,62,0.00,,,0.00,WUHU21623XXSP,2013-02-02 08:39:00,
2013-02-02 00:44:00,27.7,16.7,30.32,ENE,67,0.0,0.0,63,0.00,,,0.00,WUHU21623XXSP,2013-02-02 08:44:00,
2013-02-02 00:49:00,27.5,16.5,30.32,NE,45,0.0,0.0,63,0.00,,,0.00,WUHU21623XXSP,2013-02-02 08:49:00,
2013-02-02 00:54:00,27.5,16.5,30.32,NNW,337,0.0,0.0,63,0.00,,,0.00,WUHU21623XXSP,2013-02-02 08:54:00,
2013-02-02 00:59:00,27.5,16.5,30.32,NNW,337,0.0,0.0,63,0.00,,,0.00,WUHU21623XXSP,2013-02-02 08:59:00,
2013-02-02 01:04:00,27.3,16.3,30.32,NNW,337,0.0,0.0,63,0.00,,,0.00,WUHU21623XXSP,2013-02-02 09:04:00,
2013-02-02 01:11:00,27.1,16.2,30.32,SSE,157,0.0,0.0,63,0.00,,,0.00,WUHU21623XXSP,2013-02-02 09:11:00,
2013-02-02 01:16:00,27.1,16.5,30.32,SE,135,0.0,0.0,64,0.00,,,0.00,WUHU21623XXSP,2013-02-02 09:16:00,
2013-02-02 01:21:00,27.0,16.3,30.32,ESE,112,0.0,0.0,64,0.00,,,0.00,WUHU21623XXSP,2013-02-02 09:21:00,
2013-02-02 01:26:00,27.0,16.3,30.32,SE,135,0.0,0.0,64,0.00,,,0.00,WUHU21623XXSP,2013-02-02 09:26:00,
2013-02-02 01:31:00,26.8,16.2,30.32,SE,135,0.0,0.0,64,0.00,,,0.00,WUHU21623XXSP,2013-02-02 09:31:00,
2013-02-02 01:39:00,26.8,16.2,30.33,SE,135,0.0,0.0,64,0.00,,,0.00,WUHU21623XXSP,2013-02-02 09:39:00,
2013-02-02 01:44:00,26.6,16.0,30.32,SE,135,0.0,0.0,64,0.00,,,0.00,WUHU21623XXSP,2013-02-02 09:44:00,
2013-02-02 01:52:00,26.4,15.8,30.33,NNE,22,0.0,0.0,64,0.00,,,0.00,WUHU21623XXSP,2013-02-02 09:52:00,
2013-02-02 01:57:00,26.4,15.8,30.33,NNE,22,0.0,0.0,64,0.00,,,0.00,WUHU21623XXSP,2013-02-02 09:57:00,
2013-02-02 02:02:00,26.4,15.8,30.32,NE,45,0.0,0.0,64,0.00,,,0.00,WUHU21623XXSP,2013-02-02 10:02:00,
2013-02-02 02:07:00,26.2,15.6,30.33,NE,45,0.0,0.0,64,0.00,,,0.00,WUHU21623XXSP,2013-02-02 10:07:00,
2013-02-02 02:12:00,26.2,16.0,30.33,SSE,157,0.0,0.0,65,0.00,,,0.00,WUHU21623XXSP,2013-02-02 10:12:00,
2013-02-02 02:17:00,26.1,15.8,30.32,SE,135,0.0,0.0,65,0.00,,,0.00,WUHU21623XXSP,2013-02-02 10:17:00,
2013-02-02 02:22:00,25.9,15.7,30.33,ENE,67,0.0,0.0,65,0.00,,,0.00,WUHU21623XXSP,2013-02-02 10:22:00,
2013-02-02 02:27:00,25.9,15.7,30.33,ENE,67,0.0,0.0,65,0.00,,,0.00,WUHU21623XXSP,2013-02-02 10:27:00,
2013-02-02 02:32:00,25.9,15.7,30.33,East,90,0.0,0.0,65,0.00,,,0.00,WUHU21623XXSP,2013-02-02 10:32:00,
2013-02-02 02:37:00,25.7,15.5,30.33,ESE,112,0.0,0.0,65,0.00,,,0.00,WUHU21623XXSP,2013-02-02 10:37:00,
2013-02-02 02:43:00,25.7,15.8,30.33,NE,45,0.0,0.0,66,0.00,,,0.00,WUHU21623XXSP,2013-02-02 10:43:00,
2013-02-02 02:48:00,25.5,15.7,30.33,NE,45,0.0,0.0,66,0.00,,,0.00,WUHU21623XXSP,2013-02-02 10:48:00,
2013-02-02 02:58:00,25.5,15.7,30.32,WNW,292,0.0,0.0,66,0.00,,,0.00,WUHU21623XXSP,2013-02-02 10:58:00,
2013-02-02 03:03:00,25.5,15.7,30.32,NNW,337,0.0,0.0,66,0.00,,,0.00,WUHU21623XXSP,2013-02-02 11:03:00,
2013-02-02 03:08:00,25.3,15.5,30.32,NNW,337,0.0,0.0,66,0.00,,,0.00,WUHU21623XXSP,2013-02-02 11:08:00,
2013-02-02 03:17:00,25.3,15.5,30.32,NNW,337,0.0,0.0,66,0.00,,,0.00,WUHU21623XXSP,2013-02-02 11:17:00,
2013-02-02 03:22:00,25.2,15.3,30.32,NNW,337,0.0,0.0,66,0.00,,,0.00,WUHU21623XXSP,2013-02-02 11:22:00,
2013-02-02 03:35:00,25.0,15.1,30.32,NE,45,0.0,0.0,66,0.00,,,0.00,WUHU21623XXSP,2013-02-02 11:35:00,
2013-02-02 03:47:00,24.8,15.3,30.32,ENE,67,0.0,0.0,67,0.00,,,0.00,WUHU21623XXSP,2013-02-02 11:47:00,
2013-02-02 03:52:00,24.6,15.1,30.32,East,90,0.0,0.0,67,0.00,,,0.00,WUHU21623XXSP,2013-02-02 11:52:00,
2013-02-02 03:57:00,24.6,15.1,30.32,East,90,0.0,0.0,67,0.00,,,0.00,WUHU21623XXSP,2013-02-02 11:57:00,
2013-02-02 04:02:00,24.6,15.1,30.32,South,180,0.0,0.0,67,0.00,,,0.00,WUHU21623XXSP,2013-02-02 12:02:00,
2013-02-02 04:07:00,24.6,15.1,30.32,NE,45,0.0,0.0,67,0.00,,,0.00,WUHU21623XXSP,2013-02-02 12:07:00,
2013-02-02 04:13:00,24.6,15.1,30.32,NE,45,0.0,0.0,67,0.00,,,0.00,WUHU21623XXSP,2013-02-02 12:13:00,
2013-02-02 04:19:00,24.6,15.1,30.32,NNE,22,0.0,0.0,67,0.00,,,0.00,WUHU21623XXSP,2013-02-02 12:19:00,
2013-02-02 04:26:00,24.4,15.0,30.32,NNE,22,0.0,0.0,67,0.00,,,0.00,WUHU21623XXSP,2013-02-02 12:26:00,
2013-02-02 04:31:00,24.4,15.0,30.32,NE,45,0.0,0.0,67,0.00,,,0.00,WUHU21623XXSP,2013-02-02 12:31:00,
2013-02-02 04:36:00,24.4,15.0,30.32,South,180,0.0,0.0,67,0.00,,,0.00,WUHU21623XXSP,2013-02-02 12:36:00,
2013-02-02 04:41:00,24.4,15.0,30.32,South,180,0.0,0.0,67,0.00,,,0.00,WUHU21623XXSP,2013-02-02 12:41:00,
2013-02-02 04:47:00,24.4,15.0,30.32,SE,135,0.0,0.0,67,0.00,,,0.00,WUHU21623XXSP,2013-02-02 12:47:00,
2013-02-02 04:56:00,24.1,14.6,30.32,East,90,0.0,0.0,67,0.00,,,0.00,WUHU21623XXSP,2013-02-02 12:56:00,
2013-02-02 05:01:00,24.1,14.6,30.32,SW,225,0.0,0.0,67,0.00,,,0.00,WUHU21623XXSP,2013-02-02 13:01:00,
2013-02-02 05:07:00,24.1,15.0,30.32,SW,225,0.0,0.0,68,0.00,,,0.00,WUHU21623XXSP,2013-02-02 13:07:00,
2013-02-02 05:12:00,24.1,15.0,30.32,ENE,67,0.0,0.0,68,0.00,,,0.00,WUHU21623XXSP,2013-02-02 13:12:00,
2013-02-02 05:17:00,23.9,14.8,30.32,NE,45,0.0,0.0,68,0.00,,,0.00,WUHU21623XXSP,2013-02-02 13:17:00,
2013-02-02 05:22:00,23.9,14.8,30.32,ENE,67,0.0,0.0,68,0.00,,,0.00,WUHU21623XXSP,2013-02-02 13:22:00,
2013-02-02 05:27:00,23.9,14.8,30.32,ENE,67,0.0,0.0,68,0.00,,,0.00,WUHU21623XXSP,2013-02-02 13:27:00,
2013-02-02 05:32:00,23.7,14.6,30.32,ENE,67,0.0,0.0,68,0.00,,,0.00,WUHU21623XXSP,2013-02-02 13:32:00,
2013-02-02 05:37:00,23.7,14.6,30.32,ENE,67,0.0,0.0,68,0.00,,,0.00,WUHU21623XXSP,2013-02-02 13:37:00,
2013-02-02 05:45:00,23.7,15.0,30.32,ESE,112,0.0,0.0,69,0.00,,,0.00,WUHU21623XXSP,2013-02-02 13:45:00,
2013-02-02 05:52:00,23.7,15.0,30.32,ESE,112,0.0,0.0,69,0.00,,,0.00,WUHU21623XXSP,2013-02-02 13:52:00,
2013-02-02 05:57:00,23.7,15.0,30.32,NE,45,0.0,0.0,69,0.00,,,0.00,WUHU21623XXSP,2013-02-02 13:57:00,
2013-02-02 06:02:00,23.7,15.0,30.32,ENE,67,0.0,0.0,69,0.00,,,0.00,WUHU21623XXSP,2013-02-02 14:02:00,
2013-02-02 06:07:00,23.7,15.0,30.32,NE,45,0.0,0.0,69,0.00,,,0.00,WUHU21623XXSP,2013-02-02 14:07:00,
2013-02-02 06:12:00,23.7,15.0,30.32,East,90,0.0,0.0,69,0.00,,,0.00,WUHU21623XXSP,2013-02-02 14:12:00,
2013-02-02 06:17:00,23.7,15.0,30.32,East,90,0.0,0.0,69,0.00,,,0.00,WUHU21623XXSP,2013-02-02 14:17:00,
2013-02-02 06:22:00,23.7,15.0,30.32,East,90,0.0,0.0,69,0.00,,,0.00,WUHU21623XXSP,2013-02-02 14:22:00,
2013-02-02 06:27:00,23.7,15.0,30.32,ENE,67,0.0,0.0,69,0.00,,,0.00,WUHU21623XXSP,2013-02-02 14:27:00,
2013-02-02 06:32:00,23.7,15.0,30.32,ENE,67,0.0,0.0,69,0.00,,,0.00,WUHU21623XXSP,2013-02-02 14:32:00,
2013-02-02 06:37:00,23.7,15.0,30.32,ENE,67,0.0,0.0,69,0.00,,,0.00,WUHU21623XXSP,2013-02-02 14:37:00,
2013-02-02 06:42:00,23.7,15.0,30.32,NNE,22,0.0,0.0,69,0.00,,,0.00,WUHU21623XXSP,2013-02-02 14:42:00,
2013-02-02 06:47:00,23.7,15.4,30.32,WNW,292,0.0,0.0,70,0.00,,,0.00,WUHU21623XXSP,2013-02-02 14:47:00,
2013-02-02 06:52:00,23.7,15.4,30.33,NNW,337,0.0,0.0,70,0.00,,,0.00,WUHU21623XXSP,2013-02-02 14:52:00,
2013-02-02 06:57:00,23.7,15.4,30.32,NNW,337,0.0,0.0,70,0.00,,,0.00,WUHU21623XXSP,2013-02-02 14:57:00,
2013-02-02 07:02:00,23.7,15.4,30.32,NNW,337,0.0,0.0,70,0.00,,,0.00,WUHU21623XXSP,2013-02-02 15:02:00,
2013-02-02 07:07:00,23.7,15.4,30.33,NNW,337,0.0,0.0,70,0.00,,,0.00,WUHU21623XXSP,2013-02-02 15:07:00,
2013-02-02 07:12:00,23.7,15.4,30.33,NNW,337,0.0,0.0,70,0.00,,,0.00,WUHU21623XXSP,2013-02-02 15:12:00,
2013-02-02 07:17:00,23.7,15.4,30.33,NNW,337,0.0,0.0,70,0.00,,,0.00,WUHU21623XXSP,2013-02-02 15:17:00,
2013-02-02 07:22:00,23.7,15.4,30.33,NNW,337,0.0,0.0,70,0.00,,,0.00,WUHU21623XXSP,2013-02-02 15:22:00,
2013-02-02 07:27:00,23.7,15.4,30.33,SSW,202,0.0,0.0,70,0.00,,,0.00,WUHU21623XXSP,2013-02-02 15:27:00,
2013-02-02 07:33:00,23.7,15.4,30.34,South,180,0.0,0.0,70,0.00,,,0.00,WUHU21623XXSP,2013-02-02 15:33:00,
2013-02-02 07:39:00,23.7,15.7,30.34,South,180,0.0,0.0,71,0.00,,,0.00,WUHU21623XXSP,2013-02-02 15:39:00,
2013-02-02 07:44:00,23.9,15.8,30.33,South,180,0.0,0.0,71,0.00,,,0.00,WUHU21623XXSP,2013-02-02 15:44:00,
2013-02-02 07:49:00,23.9,15.8,30.34,South,180,0.0,0.0,71,0.00,,,0.00,WUHU21623XXSP,2013-02-02 15:49:00,
2013-02-02 07:54:00,24.1,16.0,30.34,South,180,0.0,0.0,71,0.00,,,0.00,WUHU21623XXSP,2013-02-02 15:54:00,
2013-02-02 07:59:00,24.1,16.0,30.34,South,180,0.0,0.0,71,0.00,,,0.00,WUHU21623XXSP,2013-02-02 15:59:00,
2013-02-02 08:04:00,24.4,16.3,30.34,South,180,0.0,0.0,71,0.00,,,0.00,WUHU21623XXSP,2013-02-02 16:04:00,
2013-02-02 08:09:00,24.4,16.6,30.34,South,180,0.0,0.0,72,0.00,,,0.00,WUHU21623XXSP,2013-02-02 16:09:00,
2013-02-02 08:14:00,24.6,16.8,30.34,South,180,0.0,0.0,72,0.00,,,0.00,WUHU21623XXSP,2013-02-02 16:14:00,
2013-02-02 08:19:00,25.0,17.0,30.34,South,180,0.0,0.0,72,0.00,,,0.00,WUHU21623XXSP,2013-02-02 16:19:00,
2013-02-02 08:26:00,25.2,17.3,30.34,South,180,0.0,0.0,72,0.00,,,0.00,WUHU21623XXSP,2013-02-02 16:26:00,
2013-02-02 08:31:00,25.3,17.5,30.34,SSW,202,0.0,0.0,72,0.00,,,0.00,WUHU21623XXSP,2013-02-02 16:31:00,
2013-02-02 08:37:00,25.7,17.9,30.35,NE,45,0.0,0.0,72,0.00,,,0.00,WUHU21623XXSP,2013-02-02 16:37:00,
2013-02-02 08:41:00,26.1,18.2,30.34,NE,45,0.0,0.0,72,0.00,,,0.00,WUHU21623XXSP,2013-02-02 16:41:00,
2013-02-02 08:47:00,26.4,18.9,30.35,West,270,0.0,0.0,73,0.00,,,0.00,WUHU21623XXSP,2013-02-02 16:47:00,
2013-02-02 08:52:00,26.6,19.1,30.35,West,270,0.0,0.0,73,0.00,,,0.00,WUHU21623XXSP,2013-02-02 16:52:00,
2013-02-02 08:57:00,27.1,19.6,30.35,South,180,0.0,0.0,73,0.00,,,0.00,WUHU21623XXSP,2013-02-02 16:57:00,
2013-02-02 09:02:00,27.3,19.8,30.35,West,270,0.0,0.0,73,0.00,,,0.00,WUHU21623XXSP,2013-02-02 17:02:00,
2013-02-02 09:07:00,28.0,20.5,30.35,NW,315,0.0,0.0,73,0.00,,,0.00,WUHU21623XXSP,2013-02-02 17:07:00,
2013-02-02 09:12:00,28.2,20.7,30.35,WNW,292,0.0,0.0,73,0.00,,,0.00,WUHU21623XXSP,2013-02-02 17:12:00,
2013-02-02 09:17:00,28.8,21.2,30.35,WNW,292,0.0,0.0,73,0.00,,,0.00,WUHU21623XXSP,2013-02-02 17:17:00,
2013-02-02 09:22:00,29.1,21.5,30.35,WNW,292,0.0,0.0,74,0.00,,,0.00,WUHU21623XXSP,2013-02-02 17:22:00,
2013-02-02 09:27:00,29.7,22.0,30.35,WNW,292,0.0,0.0,74,0.00,,,0.00,WUHU21623XXSP,2013-02-02 17:27:00,
2013-02-02 09:32:00,30.0,22.7,30.36,NNW,337,0.0,0.0,74,0.00,,,0.00,WUHU21623XXSP,2013-02-02 17:32:00,
2013-02-02 09:37:00,30.2,22.9,30.36,NNW,337,0.0,0.0,74,0.00,,,0.00,WUHU21623XXSP,2013-02-02 17:37:00,
2013-02-02 09:45:00,31.1,23.8,30.35,North,0,0.0,0.0,74,0.00,,,0.00,WUHU21623XXSP,2013-02-02 17:45:00,
2013-02-02 09:50:00,31.5,23.9,30.35,North,0,0.0,0.0,74,0.00,,,0.00,WUHU21623XXSP,2013-02-02 17:50:00,
2013-02-02 09:55:00,31.8,24.5,30.35,South,180,0.0,0.0,74,0.00,,,0.00,WUHU21623XXSP,2013-02-02 17:55:00,
2013-02-02 10:02:00,32.7,25.3,30.35,SSE,157,0.0,0.0,74,0.00,,,0.00,WUHU21623XXSP,2013-02-02 18:02:00,
2013-02-02 10:07:00,32.9,25.5,30.35,SSE,157,0.0,0.0,73,0.00,,,0.00,WUHU21623XXSP,2013-02-02 18:07:00,
2013-02-02 10:12:00,33.1,25.3,30.35,NNE,22,0.0,0.0,73,0.00,,,0.00,WUHU21623XXSP,2013-02-02 18:12:00,
2013-02-02 10:19:00,33.6,25.8,30.35,WSW,247,0.0,0.0,73,0.00,,,0.00,WUHU21623XXSP,2013-02-02 18:19:00,
2013-02-02 10:24:00,34.0,26.1,30.35,WSW,247,0.0,0.0,73,0.00,,,0.00,WUHU21623XXSP,2013-02-02 18:24:00,
2013-02-02 10:29:00,34.3,26.5,30.35,SE,135,0.0,0.0,73,0.00,,,0.00,WUHU21623XXSP,2013-02-02 18:29:00,
2013-02-02 10:34:00,34.5,26.7,30.35,SE,135,0.0,0.0,73,0.00,,,0.00,WUHU21623XXSP,2013-02-02 18:34:00,
2013-02-02 10:39:00,34.9,27.0,30.35,South,180,0.0,0.0,73,0.00,,,0.00,WUHU21623XXSP,2013-02-02 18:39:00,
2013-02-02 10:44:00,35.4,27.6,30.35,South,180,0.0,0.0,73,0.00,,,0.00,WUHU21623XXSP,2013-02-02 18:44:00,
2013-02-02 10:50:00,35.6,27.8,30.35,WNW,292,0.0,0.0,73,0.00,,,0.00,WUHU21623XXSP,2013-02-02 18:50:00,
2013-02-02 10:58:00,36.3,28.1,30.35,SE,135,0.0,0.0,72,0.00,,,0.00,WUHU21623XXSP,2013-02-02 18:58:00,
2013-02-02 11:04:00,36.9,28.4,30.34,ESE,112,0.0,0.0,71,0.00,,,0.00,WUHU21623XXSP,2013-02-02 19:04:00,
2013-02-02 11:09:00,37.0,28.2,30.34,SSE,157,0.0,0.0,70,0.00,,,0.00,WUHU21623XXSP,2013-02-02 19:09:00,
2013-02-02 11:17:00,37.2,28.4,30.34,SE,135,0.0,0.0,70,0.00,,,0.00,WUHU21623XXSP,2013-02-02 19:17:00,
2013-02-02 11:24:00,37.8,28.4,30.34,SSE,157,0.0,0.0,69,0.00,,,0.00,WUHU21623XXSP,2013-02-02 19:24:00,
2013-02-02 11:29:00,37.9,28.7,30.34,SE,135,0.0,0.0,69,0.00,,,0.00,WUHU21623XXSP,2013-02-02 19:29:00,
2013-02-02 11:39:00,38.3,29.0,30.33,NNE,22,0.0,0.0,69,0.00,,,0.00,WUHU21623XXSP,2013-02-02 19:39:00,
2013-02-02 11:44:00,38.5,29.2,30.32,NNE,22,0.0,0.0,69,0.00,,,0.00,WUHU21623XXSP,2013-02-02 19:44:00,
2013-02-02 11:49:00,39.0,29.7,30.32,East,90,0.0,0.0,69,0.00,,,0.00,WUHU21623XXSP,2013-02-02 19:49:00,
2013-02-02 11:54:00,39.0,29.3,30.32,SSE,157,0.0,0.0,68,0.00,,,0.00,WUHU21623XXSP,2013-02-02 19:54:00,
2013-02-02 12:00:00,39.7,29.6,30.32,ENE,67,0.0,0.0,67,0.00,,,0.00,WUHU21623XXSP,2013-02-02 20:00:00,
2013-02-02 12:06:00,40.1,30.0,30.32,South,180,0.0,0.0,67,0.00,,,0.00,WUHU21623XXSP,2013-02-02 20:06:00,
2013-02-02 12:13:00,40.6,30.1,30.32,South,180,0.0,0.0,66,0.00,,,0.00,WUHU21623XXSP,2013-02-02 20:13:00,
2013-02-02 12:18:00,40.8,30.3,30.32,WNW,292,0.0,0.0,66,0.00,,,0.00,WUHU21623XXSP,2013-02-02 20:18:00,
2013-02-02 12:23:00,41.2,30.6,30.31,WSW,247,0.0,0.0,66,0.00,,,0.00,WUHU21623XXSP,2013-02-02 20:23:00,
2013-02-02 12:29:00,41.5,30.6,30.31,SSE,157,0.0,0.0,65,0.00,,,0.00,WUHU21623XXSP,2013-02-02 20:29:00,
2013-02-02 12:34:00,42.1,31.1,30.31,SSE,157,0.0,0.0,65,0.00,,,0.00,WUHU21623XXSP,2013-02-02 20:34:00,
2013-02-02 12:39:00,42.4,31.5,30.30,NNW,337,0.0,0.0,65,0.00,,,0.00,WUHU21623XXSP,2013-02-02 20:39:00,
2013-02-02 12:45:00,43.3,31.6,30.30,SE,135,0.0,0.0,64,0.00,,,0.00,WUHU21623XXSP,2013-02-02 20:45:00,
2013-02-02 12:50:00,43.5,31.7,30.30,NE,45,0.0,0.0,63,0.00,,,0.00,WUHU21623XXSP,2013-02-02 20:50:00,
2013-02-02 12:56:00,43.7,31.9,30.30,SSW,202,0.0,0.0,63,0.00,,,0.00,WUHU21623XXSP,2013-02-02 20:56:00,
2013-02-02 13:01:00,43.9,31.7,30.30,SSE,157,0.0,0.0,62,0.00,,,0.00,WUHU21623XXSP,2013-02-02 21:01:00,
2013-02-02 13:06:00,44.1,31.9,30.30,SE,135,0.0,0.0,62,0.00,,,0.00,WUHU21623XXSP,2013-02-02 21:06:00,
2013-02-02 13:11:00,44.2,31.7,30.30,SSE,157,0.0,0.0,61,0.00,,,0.00,WUHU21623XXSP,2013-02-02 21:11:00,
2013-02-02 13:16:00,44.4,31.8,30.30,SSE,157,0.0,0.0,60,0.00,,,0.00,WUHU21623XXSP,2013-02-02 21:16:00,
2013-02-02 13:21:00,44.4,31.5,30.30,SSE,157,0.0,0.0,60,0.00,,,0.00,WUHU21623XXSP,2013-02-02 21:21:00,
2013-02-02 13:26:00,44.4,31.5,30.30,SSE,157,2.0,2.0,60,0.00,,,0.00,WUHU21623XXSP,2013-02-02 21:26:00,
2013-02-02 13:31:00,44.6,31.6,30.30,ESE,112,0.0,2.0,60,0.00,,,0.00,WUHU21623XXSP,2013-02-02 21:31:00,
2013-02-02 13:36:00,44.8,31.4,30.29,SSW,202,0.0,0.0,59,0.00,,,0.00,WUHU21623XXSP,2013-02-02 21:36:00,
2013-02-02 13:41:00,44.8,31.4,30.29,WNW,292,0.0,0.0,59,0.00,,,0.00,WUHU21623XXSP,2013-02-02 21:41:00,
2013-02-02 13:47:00,45.1,32.1,30.29,NNE,22,0.0,0.0,60,0.00,,,0.00,WUHU21623XXSP,2013-02-02 21:47:00,
2013-02-02 13:52:00,45.3,31.8,30.28,West,270,0.0,0.0,59,0.00,,,0.00,WUHU21623XXSP,2013-02-02 21:52:00,
2013-02-02 14:04:00,45.7,31.7,30.29,SSE,157,0.0,0.0,58,0.00,,,0.00,WUHU21623XXSP,2013-02-02 22:04:00,
2013-02-02 14:11:00,45.7,31.3,30.29,SW,225,0.0,0.0,57,0.00,,,0.00,WUHU21623XXSP,2013-02-02 22:11:00,
2013-02-02 14:16:00,45.7,31.7,30.28,WNW,292,0.0,0.0,58,0.00,,,0.00,WUHU21623XXSP,2013-02-02 22:16:00,
2013-02-02 14:21:00,45.7,31.7,30.28,WNW,292,0.0,0.0,58,0.00,,,0.00,WUHU21623XXSP,2013-02-02 22:21:00,
2013-02-02 14:34:00,46.2,31.7,30.28,SE,135,0.0,0.0,57,0.00,,,0.00,WUHU21623XXSP,2013-02-02 22:34:00,
2013-02-02 14:39:00,46.2,31.7,30.28,SSE,157,0.0,0.0,57,0.00,,,0.00,WUHU21623XXSP,2013-02-02 22:39:00,
2013-02-02 14:47:00,46.2,31.3,30.28,SW,225,0.0,0.0,56,0.00,,,0.00,WUHU21623XXSP,2013-02-02 22:47:00,
2013-02-02 14:53:00,46.2,31.3,30.28,WNW,292,0.0,0.0,56,0.00,,,0.00,WUHU21623XXSP,2013-02-02 22:53:00,
2013-02-02 14:58:00,46.2,31.3,30.28,WNW,292,0.0,0.0,56,0.00,,,0.00,WUHU21623XXSP,2013-02-02 22:58:00,
2013-02-02 15:03:00,46.2,31.3,30.28,WNW,292,0.0,0.0,56,0.00,,,0.00,WUHU21623XXSP,2013-02-02 23:03:00,
2013-02-02 15:13:00,46.4,31.5,30.28,WNW,292,0.0,0.0,56,0.00,,,0.00,WUHU21623XXSP,2013-02-02 23:13:00,
2013-02-02 15:18:00,46.6,31.6,30.27,West,270,0.0,0.0,56,0.00,,,0.00,WUHU21623XXSP,2013-02-02 23:18:00,
2013-02-02 15:23:00,46.6,31.6,30.28,WSW,247,0.0,0.0,56,0.00,,,0.00,WUHU21623XXSP,2013-02-02 23:23:00,
2013-02-02 15:30:00,46.6,31.6,30.28,West,270,0.0,0.0,56,0.00,,,0.00,WUHU21623XXSP,2013-02-02 23:30:00,
2013-02-02 15:35:00,46.8,31.6,30.28,NW,315,0.0,0.0,56,0.00,,,0.00,WUHU21623XXSP,2013-02-02 23:35:00,
2013-02-02 15:40:00,46.8,31.8,30.28,NW,315,0.0,0.0,56,0.00,,,0.00,WUHU21623XXSP,2013-02-02 23:40:00,
2013-02-02 15:45:00,46.8,31.8,30.28,South,180,0.0,0.0,56,0.00,,,0.00,WUHU21623XXSP,2013-02-02 23:45:00,
2013-02-02 15:50:00,46.6,31.8,30.28,SSW,202,0.0,0.0,55,0.00,,,0.00,WUHU21623XXSP,2013-02-02 23:50:00,
2013-02-02 15:55:00,46.6,31.2,30.28,South,180,0.0,0.0,55,0.00,,,0.00,WUHU21623XXSP,2013-02-02 23:55:00,
2013-02-02 16:00:00,46.2,30.8,30.28,South,180,0.0,0.0,55,0.00,,,0.00,WUHU21623XXSP,2013-02-03 00:00:00,
2013-02-02 16:05:00,46.2,30.8,30.28,SSE,157,0.0,0.0,55,0.00,,,0.00,WUHU21623XXSP,2013-02-03 00:05:00,
2013-02-02 16:10:00,46.0,30.7,30.28,SSW,202,0.0,0.0,55,0.00,,,0.00,WUHU21623XXSP,2013-02-03 00:10:00,
2013-02-02 16:15:00,45.9,30.5,30.28,SE,135,0.0,0.0,55,0.00,,,0.00,WUHU21623XXSP,2013-02-03 00:15:00,
2013-02-02 16:20:00,45.7,30.4,30.28,SSW,202,0.0,0.0,55,0.00,,,0.00,WUHU21623XXSP,2013-02-03 00:20:00,
2013-02-02 16:25:00,45.3,30.2,30.28,SSW,202,0.0,0.0,55,0.00,,,0.00,WUHU21623XXSP,2013-02-03 00:25:00,
2013-02-02 16:31:00,45.3,30.0,30.27,SW,225,0.0,0.0,55,0.00,,,0.00,WUHU21623XXSP,2013-02-03 00:31:00,
2013-02-02 16:36:00,45.1,29.9,30.28,West,270,0.0,0.0,55,0.00,,,0.00,WUHU21623XXSP,2013-02-03 00:36:00,
2013-02-02 16:41:00,45.1,29.9,30.27,West,270,0.0,0.0,55,0.00,,,0.00,WUHU21623XXSP,2013-02-03 00:41:00,
2013-02-02 16:46:00,45.1,29.9,30.28,WSW,247,0.0,0.0,55,0.00,,,0.00,WUHU21623XXSP,2013-02-03 00:46:00,
2013-02-02 16:51:00,44.8,29.6,30.28,SSW,202,0.0,0.0,55,0.00,,,0.00,WUHU21623XXSP,2013-02-03 00:51:00,
2013-02-02 16:58:00,44.4,29.2,30.28,SSE,157,0.0,0.0,55,0.00,,,0.00,WUHU21623XXSP,2013-02-03 00:58:00,
2013-02-02 17:03:00,44.4,29.2,30.28,South,180,0.0,0.0,55,0.00,,,0.00,WUHU21623XXSP,2013-02-03 01:03:00,
2013-02-02 17:08:00,43.9,28.7,30.28,SE,135,0.0,0.0,55,0.00,,,0.00,WUHU21623XXSP,2013-02-03 01:08:00,
2013-02-02 17:13:00,43.9,29.1,30.28,SE,135,0.0,0.0,56,0.00,,,0.00,WUHU21623XXSP,2013-02-03 01:13:00,
2013-02-02 17:25:00,43.3,28.6,30.28,NNW,337,0.0,0.0,56,0.00,,,0.00,WUHU21623XXSP,2013-02-03 01:25:00,
2013-02-02 17:32:00,43.0,28.3,30.28,NNW,337,0.0,0.0,56,0.00,,,0.00,WUHU21623XXSP,2013-02-03 01:32:00,
2013-02-02 17:37:00,42.6,27.9,30.28,SSE,157,0.0,0.0,56,0.00,,,0.00,WUHU21623XXSP,2013-02-03 01:37:00,
2013-02-02 17:43:00,42.4,27.8,30.28,SSE,157,0.0,0.0,56,0.00,,,0.00,WUHU21623XXSP,2013-02-03 01:43:00,
2013-02-02 17:49:00,42.1,27.4,30.28,SSE,157,0.0,0.0,56,0.00,,,0.00,WUHU21623XXSP,2013-02-03 01:49:00,
2013-02-02 17:54:00,41.7,27.1,30.28,ESE,112,0.0,0.0,56,0.00,,,0.00,WUHU21623XXSP,2013-02-03 01:54:00,
2013-02-02 17:59:00,41.5,26.9,30.28,East,90,0.0,0.0,56,0.00,,,0.00,WUHU21623XXSP,2013-02-03 01:59:00,
2013-02-02 18:06:00,41.0,26.4,30.29,ENE,67,0.0,0.0,56,0.00,,,0.00,WUHU21623XXSP,2013-02-03 02:06:00,
2013-02-02 18:13:00,40.6,26.1,30.29,East,90,0.0,0.0,56,0.00,,,0.00,WUHU21623XXSP,2013-02-03 02:13:00,
2013-02-02 18:19:00,40.3,26.2,30.29,SE,135,0.0,0.0,57,0.00,,,0.00,WUHU21623XXSP,2013-02-03 02:19:00,
2013-02-02 18:29:00,40.1,26.0,30.29,SE,135,0.0,0.0,57,0.00,,,0.00,WUHU21623XXSP,2013-02-03 02:29:00,
2013-02-02 18:34:00,39.6,25.5,30.29,ESE,112,0.0,0.0,57,0.00,,,0.00,WUHU21623XXSP,2013-02-03 02:34:00,
2013-02-02 18:42:00,39.0,25.4,30.29,ESE,112,0.0,0.0,58,0.00,,,0.00,WUHU21623XXSP,2013-02-03 02:42:00,
2013-02-02 18:47:00,38.8,25.2,30.29,ESE,112,0.0,0.0,58,0.00,,,0.00,WUHU21623XXSP,2013-02-03 02:47:00,
2013-02-02 18:52:00,38.5,24.9,30.29,ESE,112,0.0,0.0,58,0.00,,,0.00,WUHU21623XXSP,2013-02-03 02:52:00,
2013-02-02 18:57:00,38.5,24.9,30.29,East,90,0.0,0.0,58,0.00,,,0.00,WUHU21623XXSP,2013-02-03 02:57:00,
2013-02-02 19:03:00,38.1,24.6,30.28,East,90,0.0,0.0,58,0.00,,,0.00,WUHU21623XXSP,2013-02-03 03:03:00,
2013-02-02 19:08:00,37.8,24.3,30.29,East,90,0.0,0.0,58,0.00,,,0.00,WUHU21623XXSP,2013-02-03 03:08:00,
2013-02-02 19:12:00,37.2,24.2,30.29,ESE,112,0.0,0.0,59,0.00,,,0.00,WUHU21623XXSP,2013-02-03 03:12:00,
2013-02-02 19:18:00,37.0,24.0,30.29,ESE,112,0.0,0.0,59,0.00,,,0.00,WUHU21623XXSP,2013-02-03 03:18:00,
2013-02-02 19:23:00,36.5,23.6,30.29,ESE,112,0.0,0.0,59,0.00,,,0.00,WUHU21623XXSP,2013-02-03 03:23:00,
2013-02-02 19:28:00,36.3,23.8,30.28,ESE,112,0.0,0.0,60,0.00,,,0.00,WUHU21623XXSP,2013-02-03 03:28:00,
2013-02-02 19:34:00,36.1,23.7,30.29,ESE,112,0.0,0.0,60,0.00,,,0.00,WUHU21623XXSP,2013-02-03 03:34:00,
2013-02-02 19:39:00,36.0,23.5,30.29,ESE,112,0.0,0.0,60,0.00,,,0.00,WUHU21623XXSP,2013-02-03 03:39:00,
2013-02-02 19:49:00,35.4,23.4,30.29,North,0,0.0,0.0,61,0.00,,,0.00,WUHU21623XXSP,2013-02-03 03:49:00,
2013-02-02 20:02:00,35.1,23.0,30.29,WNW,292,0.0,0.0,61,0.00,,,0.00,WUHU21623XXSP,2013-02-03 04:02:00,
2013-02-02 20:07:00,34.9,22.8,30.29,NW,315,0.0,0.0,61,0.00,,,0.00,WUHU21623XXSP,2013-02-03 04:07:00,
2013-02-02 20:12:00,34.9,22.8,30.28,WNW,292,0.0,0.0,61,0.00,,,0.00,WUHU21623XXSP,2013-02-03 04:12:00,
2013-02-02 20:17:00,34.5,22.6,30.29,WNW,292,0.0,0.0,61,0.00,,,0.00,WUHU21623XXSP,2013-02-03 04:17:00,
2013-02-02 20:22:00,34.5,22.5,30.29,WNW,292,0.0,0.0,61,0.00,,,0.00,WUHU21623XXSP,2013-02-03 04:22:00,
2013-02-02 20:27:00,34.3,22.3,30.29,ESE,112,0.0,0.0,61,0.00,,,0.00,WUHU21623XXSP,2013-02-03 04:27:00,
2013-02-02 20:34:00,34.0,22.3,30.28,ENE,67,0.0,0.0,62,0.00,,,0.00,WUHU21623XXSP,2013-02-03 04:34:00,
2013-02-02 20:42:00,33.6,21.9,30.28,ENE,67,0.0,0.0,62,0.00,,,0.00,WUHU21623XXSP,2013-02-03 04:42:00,
2013-02-02 20:47:00,33.3,21.8,30.28,East,90,0.0,0.0,62,0.00,,,0.00,WUHU21623XXSP,2013-02-03 04:47:00,
2013-02-02 20:52:00,32.9,21.3,30.28,ENE,67,0.0,0.0,62,0.00,,,0.00,WUHU21623XXSP,2013-02-03 04:52:00,
2013-02-02 20:59:00,32.5,21.0,30.28,NE,45,0.0,0.0,62,0.00,,,0.00,WUHU21623XXSP,2013-02-03 04:59:00,
2013-02-02 21:00:00,32.5,21.0,30.28,NE,45,0.0,0.0,62,0.00,,,0.00,WUHU21623XXSP,2013-02-03 05:00:00,
2013-02-02 21:02:00,32.5,21.0,30.28,NE,45,0.0,0.0,62,0.00,,,0.00,WUHU21623XXSP,2013-02-03 05:02:00,
2013-02-02 21:07:00,32.0,20.6,30.27,East,90,0.0,0.0,62,0.00,,,0.00,WUHU21623XXSP,2013-02-03 05:07:00,
2013-02-02 21:17:00,31.6,20.5,30.28,ESE,112,0.0,0.0,63,0.00,,,0.00,WUHU21623XXSP,2013-02-03 05:17:00,
2013-02-02 21:22:00,31.3,20.1,30.29,NE,45,0.0,0.0,63,0.00,,,0.00,WUHU21623XXSP,2013-02-03 05:22:00,
2013-02-02 21:27:00,31.1,19.9,30.29,NE,45,0.0,0.0,63,0.00,,,0.00,WUHU21623XXSP,2013-02-03 05:27:00,
2013-02-02 21:32:00,30.7,19.6,30.29,NE,45,0.0,0.0,63,0.00,,,0.00,WUHU21623XXSP,2013-02-03 05:32:00,
2013-02-02 21:37:00,30.7,19.6,30.29,NE,45,0.0,0.0,63,0.00,,,0.00,WUHU21623XXSP,2013-02-03 05:37:00,
2013-02-02 21:42:00,30.2,19.0,30.28,SE,135,0.0,0.0,63,0.00,,,0.00,WUHU21623XXSP,2013-02-03 05:42:00,
2013-02-02 21:47:00,30.0,18.9,30.29,SE,135,0.0,0.0,63,0.00,,,0.00,WUHU21623XXSP,2013-02-03 05:47:00,
2013-02-02 21:52:00,29.8,18.7,30.28,East,90,0.0,0.0,63,0.00,,,0.00,WUHU21623XXSP,2013-02-03 05:52:00,
2013-02-02 21:57:00,29.3,18.6,30.28,East,90,0.0,0.0,64,0.00,,,0.00,WUHU21623XXSP,2013-02-03 05:57:00,
2013-02-02 22:02:00,29.3,18.6,30.28,East,90,0.0,0.0,64,0.00,,,0.00,WUHU21623XXSP,2013-02-03 06:02:00,
2013-02-02 22:07:00,29.3,18.6,30.28,East,90,0.0,0.0,64,0.00,,,0.00,WUHU21623XXSP,2013-02-03 06:07:00,